This is the latest recevied weather packets stored in our database for station/object IZ6UQU-13. If no packets are shown the sender has not sent any weather packets the latest 10 day(s).
| Time | Temp. | Humidity | Pressure | Rain* | Wind** | Luminosity | Snow |
|---|---|---|---|---|---|---|---|
| 1777700706 | 5.56° C | 72% | 964 hPa | 0 mm | - | - | - |
| 1777700406 | 5° C | 73% | 964 hPa | 0 mm | - | - | - |
| 1777700106 | 4.44° C | 73% | 964 hPa | 0 mm | - | - | - |
| 1777699806 | 3.89° C | 75% | 964 hPa | 0 mm | - | - | - |
| 1777699506 | 3.33° C | 75% | 964.1 hPa | 0 mm | - | - | - |
| 1777699206 | 3.33° C | 76% | 964 hPa | 0 mm | - | - | - |
| 1777698906 | 2.78° C | 79% | 964 hPa | 0 mm | - | - | - |
| 1777698606 | 2.22° C | 79% | 964 hPa | 0 mm | - | - | - |
| 1777698306 | 1.67° C | 81% | 963.9 hPa | 0 mm | - | - | - |
| 1777698006 | 1.67° C | 80% | 964.1 hPa | 0 mm | - | - | - |
| 1777697706 | 1.11° C | 80% | 964 hPa | 0 mm | - | - | - |
| 1777697406 | 1.11° C | 80% | 964.1 hPa | 0 mm | - | - | - |
| 1777697106 | 1.11° C | 80% | 963.9 hPa | 0 mm | - | - | - |
| 1777696806 | 1.67° C | 81% | 963.9 hPa | 0 mm | - | - | - |
| 1777696506 | 1.11° C | 81% | 963.7 hPa | 0 mm | - | - | - |
| 1777696206 | 1.11° C | 81% | 963.8 hPa | 0 mm | - | - | - |
| 1777695906 | 1.11° C | 79% | 963.7 hPa | 0 mm | - | - | - |
| 1777695606 | 1.11° C | 78% | 963.7 hPa | 0 mm | - | - | - |
| 1777695306 | 1.67° C | 77% | 963.8 hPa | 0 mm | - | - | - |
| 1777695006 | 1.67° C | 78% | 963.7 hPa | 0 mm | - | - | - |
| 1777694406 | 2.22° C | 77% | 963.7 hPa | 0 mm | - | - | - |
| 1777694106 | 2.22° C | 76% | 963.7 hPa | 0 mm | - | - | - |
| 1777693806 | 2.22° C | 74% | 963.7 hPa | 0 mm | - | - | - |
| 1777693506 | 2.78° C | 73% | 963.8 hPa | 0 mm | - | - | - |
| 1777693206 | 2.78° C | 72% | 963.6 hPa | 0 mm | - | - | - |
* Rain latest hour (hover to see other rain measurements)
** Current wind speed in m/s (hover to see current wind gust speed)